This is the latest recevied weather packets stored in our database for station/object SP1BMW-13. If no packets are shown the sender has not sent any weather packets the latest 1 day(s).
| Time | Temp. | Humidity | Pressure | Rain* | Wind** | Luminosity | Snow |
|---|---|---|---|---|---|---|---|
| 1778068792 | 9.44° C | 94% | 1005.9 hPa | 0.25 mm | 1.79 m/s, 0° | 131 W/m² | - |
| 1778068732 | 9.44° C | 94% | 1005.6 hPa | 0.25 mm | 0.89 m/s, 355° | 158 W/m² | - |
| 1778068612 | 9.44° C | 94% | 1005.7 hPa | 0.25 mm | 1.34 m/s, 274° | 190 W/m² | - |
| 1778068492 | 9.44° C | 94% | 1005.6 hPa | 0.25 mm | 0.45 m/s, 320° | 153 W/m² | - |
| 1778068373 | 9.44° C | 94% | 1005.6 hPa | 0.25 mm | 1.79 m/s, 292° | 173 W/m² | - |
| 1778068312 | 9.44° C | 94% | 1005.7 hPa | 0.25 mm | 2.24 m/s, 2° | 150 W/m² | - |
| 1778068252 | 9.44° C | 94% | 1005.8 hPa | 0.25 mm | 0.89 m/s, 345° | 135 W/m² | - |
| 1778068192 | 9.44° C | 94% | 1005.7 hPa | 0.25 mm | 0.45 m/s, 283° | 124 W/m² | - |
| 1778068072 | 9.44° C | 94% | 1005.8 hPa | 0.25 mm | 1.79 m/s, 328° | 122 W/m² | - |
| 1778067952 | 9.44° C | 94% | 1005.6 hPa | 0.25 mm | 1.34 m/s, 342° | 123 W/m² | - |
| 1778067712 | 9.44° C | 94% | 1005.4 hPa | 0.25 mm | 1.79 m/s, 299° | 147 W/m² | - |
| 1778067652 | 9.44° C | 94% | 1005.5 hPa | 0.25 mm | 1.34 m/s, 278° | 161 W/m² | - |
| 1778067532 | 9.44° C | 94% | 1005.6 hPa | 0.51 mm | 0.89 m/s, 333° | 163 W/m² | - |
| 1778067232 | 10° C | 94% | 1005.4 hPa | 0.51 mm | 1.79 m/s, 286° | 123 W/m² | - |
| 1778067172 | 10° C | 94% | 1005.6 hPa | 0.51 mm | 2.24 m/s, 44° | 104 W/m² | - |
| 1778067053 | 10° C | 94% | 1005.6 hPa | 0.51 mm | 1.34 m/s, 340° | 100 W/m² | - |
| 1778066932 | 10° C | 94% | 1005.7 hPa | 0.51 mm | 0 m/s | 76 W/m² | - |
| 1778066812 | 10° C | 94% | 1005.4 hPa | 0.51 mm | 0.89 m/s, 343° | 75 W/m² | - |
| 1778066752 | 10° C | 94% | 1005.4 hPa | 0.51 mm | 0.45 m/s, 4° | 110 W/m² | - |
| 1778066632 | 10° C | 95% | 1005.4 hPa | 0.51 mm | 1.34 m/s, 11° | 129 W/m² | - |
| 1778066452 | 10° C | 94% | 1005.6 hPa | 0.25 mm | 0 m/s | 115 W/m² | - |
| 1778066392 | 10° C | 94% | 1005.4 hPa | 0.25 mm | 0 m/s | 97 W/m² | - |
| 1778066332 | 10° C | 94% | 1005.4 hPa | 0.25 mm | 0.45 m/s, 319° | 79 W/m² | - |
| 1778066272 | 10° C | 94% | 1005.5 hPa | 0.25 mm | 0.45 m/s, 10° | 69 W/m² | - |
| 1778066212 | 10° C | 94% | 1005.3 hPa | 0.25 mm | 1.34 m/s, 348° | 58 W/m² | - |
* Rain latest hour (hover to see other rain measurements)
** Current wind speed in m/s (hover to see current wind gust speed)